Corning, AR

8:39 PM CDT on August 25, 2016 (GMT -0500)
Corning

Weather History for K4M9 - October, 2012

Change the Weather History Date:

Thursday, October 18, 2012

  Actual Average (KARG) Record (KARG)
Temperature  
Mean Temperature 56 °F -  
Max Temperature 64 °F 69 °F 86 °F (2005)
Min Temperature 48 °F 48 °F 37 °F (1997)
Degree Days  
Heating Degree Days 9    
Growing Degree Days 6 (Base 50)    
Moisture  
Dew Point 41 °F    
Average Humidity 63    
Maximum Humidity 94    
Minimum Humidity 30    
Precipitation  
Precipitation 0.00 in - - ()
Sea Level Pressure  
Sea Level Pressure 29.74 in    
Wind  
Wind Speed 11 mph (WSW)    
Max Wind Speed 25 mph    
Max Gust Speed 32 mph    
Visibility 10 miles    
Events      
Averages and records for this station are not official NWS values.
T = Trace of Precipitation, MM = Missing Value Source: NWS Daily Summary

Daily Weather History Graph

Daily Weather History Graph

Search for Another Location

Airport or City:

Trip Planner

Search our weather history database for the weather conditions in past years. The results will help you decide how hot, cold, wet, or windy it might be!

Date:

Astronomy

Oct. 18, 2012 Rise Set
Actual Time 7:12 AM CDT 6:21 PM CDT
Civil Twilight 6:46 AM CDT 6:47 PM CDT
Nautical Twilight 6:16 AM CDT 7:17 PM CDT
Astronomical Twilight 5:46 AM CDT 7:47 PM CDT
Moon 10:49 AM CDT (10/18) 9:02 PM CDT (10/18)
Length of Visible Light 12h 01m
Length of Day
11h 08m
Waxing Crescent, 14% of the Moon is Illuminated
Oct 18
Waxing Crescent
Oct 21
First Quarter
Oct 29
Full
Nov 6
Last Quarter
Nov 13
New

Hourly Weather History & Observations

Time (CDT) Temp. Dew Point Humidity Pressure Visibility Wind Dir Wind Speed Gust Speed Precip Events Conditions
12:15 AM 55.4 °F 51.8 °F 88% 29.69 in 10.0 mi West 6.9 mph - N/A   Unknown
12:35 AM 55.4 °F 51.8 °F 88% 29.70 in 10.0 mi WSW 6.9 mph - N/A   Unknown
12:55 AM 55.4 °F 51.8 °F 88% 29.71 in 10.0 mi West 9.2 mph - N/A   Unknown
1:35 AM 53.6 °F 50.0 °F 88% 29.71 in 10.0 mi WSW 6.9 mph - N/A   Unknown
1:55 AM 53.6 °F 50.0 °F 88% 29.72 in 10.0 mi WSW 8.1 mph - N/A   Unknown
2:15 AM 53.6 °F 50.0 °F 88% 29.73 in 10.0 mi WSW 8.1 mph - N/A   Unknown
2:35 AM 51.8 °F 50.0 °F 94% 29.74 in 10.0 mi WSW 8.1 mph - N/A   Unknown
2:55 AM 51.8 °F 50.0 °F 94% 29.74 in 10.0 mi WSW 9.2 mph - N/A   Unknown
3:15 AM 51.8 °F 48.2 °F 88% 29.74 in 10.0 mi WSW 8.1 mph - N/A   Unknown
3:35 AM 51.8 °F 48.2 °F 88% 29.74 in 10.0 mi WSW 8.1 mph - N/A   Unknown
3:55 AM 50.0 °F 48.2 °F 94% 29.74 in 10.0 mi SW 9.2 mph - N/A   Unknown
4:15 AM 50.0 °F 48.2 °F 94% 29.73 in 10.0 mi WSW 5.8 mph - N/A   Unknown
4:35 AM 50.0 °F 48.2 °F 94% 29.72 in 10.0 mi WSW 8.1 mph - N/A   Unknown
4:55 AM 50.0 °F 48.2 °F 94% 29.73 in 10.0 mi WSW 9.2 mph - N/A   Unknown
5:15 AM 50.0 °F 46.4 °F 87% 29.71 in 10.0 mi SW 9.2 mph - N/A   Unknown
5:55 AM 50.0 °F 46.4 °F 87% 29.74 in 10.0 mi WSW 8.1 mph - N/A   Unknown
6:15 AM 50.0 °F 46.4 °F 87% 29.76 in 10.0 mi WSW 8.1 mph - N/A   Unknown
6:35 AM 48.2 °F 46.4 °F 93% 29.76 in 10.0 mi SW 9.2 mph - N/A   Unknown
6:55 AM 48.2 °F 46.4 °F 93% 29.76 in 10.0 mi SW 8.1 mph - N/A   Unknown
7:15 AM 48.2 °F 44.6 °F 87% 29.76 in 10.0 mi SW 6.9 mph - N/A   Unknown
7:35 AM 48.2 °F 44.6 °F 87% 29.76 in 10.0 mi SW 8.1 mph - N/A   Unknown
7:55 AM 48.2 °F 46.4 °F 93% 29.76 in 10.0 mi SW 10.4 mph - N/A   Unknown
8:15 AM 50.0 °F 46.4 °F 87% 29.77 in 10.0 mi SW 11.5 mph - N/A   Unknown
8:35 AM 50.0 °F 46.4 °F 87% 29.78 in 10.0 mi WSW 10.4 mph - N/A   Unknown
8:55 AM 51.8 °F 46.4 °F 82% 29.79 in 10.0 mi WSW 9.2 mph - N/A   Unknown
9:15 AM 53.6 °F 46.4 °F 77% 29.79 in 10.0 mi WSW 11.5 mph - N/A   Unknown
9:35 AM 55.4 °F 46.4 °F 72% 29.79 in 10.0 mi WSW 12.7 mph 18.4 mph N/A   Unknown
9:55 AM 55.4 °F 44.6 °F 67% 29.80 in 10.0 mi West 12.7 mph 19.6 mph N/A   Unknown
10:15 AM 57.2 °F 44.6 °F 63% 29.80 in 10.0 mi West 12.7 mph - N/A   Unknown
10:35 AM 57.2 °F 44.6 °F 63% 29.80 in 10.0 mi West 10.4 mph 18.4 mph N/A   Unknown
11:15 AM 59.0 °F 41.0 °F 51% 29.79 in 10.0 mi West 15.0 mph - N/A   Unknown
11:35 AM 60.8 °F 37.4 °F 42% 29.78 in 10.0 mi West 15.0 mph - N/A   Unknown
11:55 AM 62.6 °F 39.2 °F 42% 29.78 in 10.0 mi West 15.0 mph 19.6 mph N/A   Unknown
12:15 PM 62.6 °F 37.4 °F 39% 29.77 in 10.0 mi West 13.8 mph 20.7 mph N/A   Unknown
12:35 PM 62.6 °F 37.4 °F 39% 29.77 in 10.0 mi West 17.3 mph 20.7 mph N/A   Unknown
12:55 PM 62.6 °F 37.4 °F 39% 29.76 in 10.0 mi West 16.1 mph 23.0 mph N/A   Unknown
1:15 PM 64.4 °F 37.4 °F 37% 29.75 in 10.0 mi West 16.1 mph 21.9 mph N/A   Unknown
1:35 PM 64.4 °F 35.6 °F 34% 29.75 in 10.0 mi WSW 21.9 mph 29.9 mph N/A   Unknown
1:55 PM 64.4 °F 35.6 °F 34% 29.74 in 10.0 mi West 15.0 mph - N/A   Unknown
2:15 PM 64.4 °F 33.8 °F 32% 29.73 in 10.0 mi West 23.0 mph 28.8 mph N/A   Unknown
2:35 PM 64.4 °F 33.8 °F 32% 29.73 in 10.0 mi West 21.9 mph 28.8 mph N/A   Unknown
2:55 PM 64.4 °F 33.8 °F 32% 29.72 in 10.0 mi West 25.3 mph 32.2 mph N/A   Unknown
3:15 PM 64.4 °F 32.0 °F 30% 29.72 in 10.0 mi West 19.6 mph 29.9 mph N/A   Unknown
3:35 PM 64.4 °F 32.0 °F 30% 29.72 in 10.0 mi West 21.9 mph 31.1 mph N/A   Unknown
3:55 PM 64.4 °F 32.0 °F 30% 29.73 in 10.0 mi West 20.7 mph 29.9 mph N/A   Unknown
4:15 PM 64.4 °F 32.0 °F 30% 29.73 in 10.0 mi West 19.6 mph 28.8 mph N/A   Unknown
4:35 PM 64.4 °F 32.0 °F 30% 29.72 in 10.0 mi West 19.6 mph 27.6 mph N/A   Unknown
4:55 PM 64.4 °F 32.0 °F 30% 29.72 in 10.0 mi West 23.0 mph 28.8 mph N/A   Unknown
5:15 PM 62.6 °F 32.0 °F 32% 29.72 in 10.0 mi West 15.0 mph - N/A   Unknown
5:35 PM 62.6 °F 35.6 °F 37% 29.73 in 10.0 mi WSW 12.7 mph - N/A   Unknown
5:55 PM 60.8 °F 35.6 °F 39% 29.72 in 10.0 mi WSW 10.4 mph - N/A   Unknown
6:15 PM 57.2 °F 37.4 °F 48% 29.72 in 10.0 mi SW 9.2 mph - N/A   Unknown
6:55 PM 53.6 °F 39.2 °F 58% 29.73 in 10.0 mi SW 8.1 mph - N/A   Unknown
7:15 PM 51.8 °F 39.2 °F 62% 29.73 in 10.0 mi SW 9.2 mph - N/A   Unknown
7:35 PM 51.8 °F 39.2 °F 62% 29.74 in 10.0 mi SW 9.2 mph - N/A   Unknown
7:55 PM 51.8 °F 39.2 °F 62% 29.75 in 10.0 mi SW 11.5 mph - N/A   Unknown
8:15 PM 51.8 °F 37.4 °F 58% 29.75 in 10.0 mi SW 10.4 mph - N/A   Unknown
8:35 PM 51.8 °F 37.4 °F 58% 29.74 in 10.0 mi SW 9.2 mph - N/A   Unknown
8:55 PM 51.8 °F 37.4 °F 58% 29.74 in 10.0 mi SW 10.4 mph - N/A   Unknown
9:15 PM 53.6 °F 35.6 °F 51% 29.73 in 10.0 mi SW 10.4 mph - N/A   Unknown
9:35 PM 53.6 °F 35.6 °F 51% 29.73 in 10.0 mi SW 11.5 mph - N/A   Unknown
9:55 PM 53.6 °F 35.6 °F 51% 29.72 in 10.0 mi SW 11.5 mph - N/A   Unknown
10:15 PM 53.6 °F 35.6 °F 51% 29.72 in 10.0 mi SW 11.5 mph - N/A   Unknown